LEMUR-2-ROCKETJONAH

Last updated on Wed Feb 14 2018 16:20:55 GMT+0000 (Coordinated Universal Time)

1 43041U 17071E 18044.87006776 .00004280 00000-0 12054-3 0 9995 2 43041 51.6391 281.6312 0001328 91.5790 268.5346 15.38636497 12916
UTC large
Height (km)
Speed (km/s)
/
Latitude / Longitude
Inclination (degrees)
Orbital Period (minutes)
Azimuth
Elevation
Range (km)
Doppler Factor

Next 0 passes for location: London (51.5072 / 0.1276)

Sorry there are no passes over London.